weather.gov     
National Weather Service

Regional Weather Roundup
NWS Homepage
This page is being discontinued on March 12, 2014.
The same data is available at this site. Please update your bookmarks.
Thank you, and we apologize for the inconvenience.
Please send an email to SR-SRH.Webmaster@noaa.gov with any concerns.


Current Version
Previous Version:    01  02  03  04  05  06  07  08  09  10  11  12  13  14  15  16  17  18  19  20  21  22  23  24  25  26  
[Printable]
795
ASUS42 KFFC 311103
RWRGA
WEATHER ROUNDUP FOR GEORGIA
NATIONAL WEATHER SERVICE PEACHTREE CITY GA
600 AM EST SAT JAN 31 2015

NOTE: "FAIR" INDICATES FEW OR NO CLOUDS BELOW 12,000 FEET WITH NO
SIGNIFICANT WEATHER AND/OR OBSTRUCTIONS TO VISIBILITY.

* = USE WITH CAUTION. THE STATIONS MARKED WITH AN ASTERISK MAY NOT
REPORT WEATHER SUCH AS PRECIPITATION, FOG, OR THUNDER AND ARE NOT
QUALITY CONTROLLED BY NWS.

THE REMARK "TC" DENOTES TEMPERATURE READING IN DEGREES CELSIUS.

GAZ001>058-311200-
NORTH GEORGIA

CITY           SKY/WX    TMP DP  RH WIND       PRES   REMARKS
ATLANTA        PTCLDY    30  19  63 N6        30.31S WCI  24
ATHENS         CLEAR     25  19  78 CALM      30.33R
CHAMBLEE       CLEAR     26  19  74 CALM      30.31F
PEACHTREE CITY CLEAR     25  20  81 CALM      30.34R
ROME           PTCLDY    25  20  81 CALM      30.34F
WEST ATLANTA   CLEAR     29  19  66 CALM      30.33R
GAINESVILLE    CLEAR     29  19  66 CALM      30.31S
CARTERSVILLE   CLEAR     28  19  69 CALM      30.35S


CITY           SKY/WX    TMP DP  RH WIND       PRES   REMARKS
DALTON*        CLEAR     28  21  74 CALM      30.34S
MARIETTA       MOCLDY    27  20  77 SW3       30.31S
$$

GAZ059>098-102>109-311200-
CENTRAL GEORGIA

CITY           SKY/WX    TMP DP  RH WIND       PRES   REMARKS
AUGUSTA-BUSH   CLEAR     24  19  81 CALM      30.35F
AUGUSTA-DANIEL CLEAR     34  17  50 N3        30.34F
COLUMBUS       CLEAR     31  22  69 CALM      30.34R
MACON          CLEAR     26  24  92 W3        30.35R
ROBINS AFB     CLEAR     28  24  85 W2        30.32R


CITY           SKY/WX    TMP DP  RH WIND       PRES   REMARKS
LAGRANGE*      CLEAR     28  22  80 CALM      30.33S
SYLVANIA*      CLEAR     29  27  91 CALM      30.35S
MILLEDGEVILLE* CLEAR     28  28 100 CALM      30.35R
$$

GAZ099>101-110>166-311200-
SOUTH GEORGIA

CITY           SKY/WX    TMP DP  RH WIND       PRES   REMARKS
SAVANNAH       CLEAR     32  25  75 CALM      30.35R
VALDOSTA       CLEAR     37  26  64 NE5       30.31S WCI  33
ALMA           CLEAR     36  25  64 N3        30.32R
ST SIMONS      CLEAR     38  33  82 N6        30.30S WCI  33
FT STEWART     CLEAR     33  26  76 N3        30.32S
ALBANY         CLEAR     36  24  62 N5        30.34S WCI  32
HUNTER AFB     CLEAR     36  26  65 N5        30.32R WCI  32
MOODY AFB      CLEAR     37  25  62 NE6       30.31R WCI  32
BRUNSWICK      CLEAR     37  30  75 N5        30.32R WCI  34


CITY           SKY/WX    TMP DP  RH WIND       PRES   REMARKS
BAINBRIDGE*    PTCLDY    37  28  70 N3        30.33R HAZE
MOULTRIE*      CLEAR     37  28  70 CALM      30.32R
VIDALIA*       CLEAR     32  28  86 N6        30.34R WCI  26
WAYCROSS*      CLEAR     39  30  72 NE3       30.32R
DOUGLAS*       CLEAR     36  28  75 NE6       30.33S WCI  31
$$




U.S. Dept. of Commerce
NOAA National Weather Service
1325 East West Highway
Silver Spring, MD 20910
E-mail: w-nws.webmaster@noaa.gov
Page last modified: May 16, 2007
NATIONAL WEATHER SERVICE: for Safety, for Work, for Fun - FOR LIFE